Overview Statistics Trail Chart Weather Telemetry Raw packets
 

This is the latest recevied weather packets stored in our database for station/object EA7URS-13. If no packets are shown the sender has not sent any weather packets the latest 10 day(s).

<< 43 44 45 46 47 48 49 >>
Time Temp. Humidity Pressure Rain* Wind** Luminosity Snow
1788369364 37.78° C 28% 1009.3 hPa 0 mm - 83 W/m² -
1788369063 37.78° C 26% 1009.6 hPa 0 mm - 104 W/m² -
1788368761 37.78° C 26% 1009.6 hPa 0 mm - 104 W/m² -
1788368460 37.78° C 28% 1009.5 hPa 0 mm - 126 W/m² -
1788368159 37.78° C 28% 1009.5 hPa 0 mm - 126 W/m² -
1788367858 38.33° C 27% 1009.7 hPa 0 mm - 149 W/m² -
1788367557 38.33° C 27% 1009.7 hPa 0 mm - 149 W/m² -
1788367256 38.33° C 25% 1009.5 hPa 0 mm - 180 W/m² -
1788366955 38.33° C 25% 1009.5 hPa 0 mm - 180 W/m² -
1788366654 38.33° C 26% 1009.6 hPa 0 mm - 207 W/m² -
1788366353 38.33° C 26% 1009.6 hPa 0 mm - 207 W/m² -
1788366052 38.33° C 24% 1009.6 hPa 0 mm - 229 W/m² -
1788365751 38.33° C 24% 1009.6 hPa 0 mm - 229 W/m² -
1788365450 38.89° C 26% 1009.7 hPa 0 mm - 220 W/m² -
1788365149 38.89° C 26% 1009.7 hPa 0 mm - 220 W/m² -
1788364847 38.33° C 27% 1009.5 hPa 0 mm - 280 W/m² -
1788364546 38.33° C 27% 1009.5 hPa 0 mm - 280 W/m² -
1788364245 38.33° C 27% 1009.4 hPa 0 mm - 305 W/m² -
1788363944 38.33° C 27% 1009.4 hPa 0 mm - 305 W/m² -
1788363643 38.33° C 28% 1009.4 hPa 0 mm - 332 W/m² -
1788363341 38.33° C 28% 1009.4 hPa 0 mm - 332 W/m² -
1788363040 37.78° C 29% 1009.6 hPa 0 mm - 359 W/m² -
1788362739 37.78° C 29% 1009.6 hPa 0 mm - 359 W/m² -
1788362438 38.33° C 29% 1009.6 hPa 0 mm - 382 W/m² -
1788362137 38.33° C 29% 1009.6 hPa 0 mm - 382 W/m² -

* Rain latest hour (hover to see other rain measurements)
** Current wind speed in m/s (hover to see current wind gust speed)